パンスターズ彗星

C/2017 S2 ( PanSTARRS )

English version
Home page
Updated on August 11, 2020

---------------------------------------------------------------------

・ プロフィール

発見日 2017年9月16日
発見光度 20.9等
発見者 Pan-STARRS 1 telescope (Haleakala)

・ 写真集

・ 軌道要素

Epoch 2017 Sept. 4.0 TT = JDT 2458000.5                                         
T 2017 Aug. 29.33187 TT                                 Rudenko                 
q   3.6144630            (2000.0)            P               Q                  
n   0.01067251     Peri.  305.97031     +0.97176928     -0.13336403             
a  20.4311005      Node    62.42885     +0.21308336     +0.85025778             
e   0.8230901      Incl.   12.68306     -0.10129144     +0.50919126             
P  92.4                                                                         
From 66 observations 2017 Aug. 22-2018 Feb. 13, mean residual 0".3.             

・ 光度変化

        m1 = 12.5 + 5 logΔ + 10.0 log r

---------------------------------------------------------------------

軌道要素はM.P.E.C. 2020-P19に掲載されたものです。
光度グラフはComet for Windowsで作成したものです。

---------------------------------------------------------------------

Copyright(C) Seiichi Yoshida (comet@aerith.net). All rights reserved.